This is the latest recevied weather packets stored in our database for station/object K7LDN-13. If no packets are shown the sender has not sent any weather packets the latest 10 day(s).
| Time | Temp. | Humidity | Pressure | Rain* | Wind** | Luminosity | Snow |
|---|---|---|---|---|---|---|---|
| 1777850122 | 23.89° C | 13% | 1013.5 hPa | 0 mm | - | 327 W/m² | - |
| 1777849818 | 23.89° C | 13% | 1013.4 hPa | 0 mm | - | 297 W/m² | - |
| 1777849515 | 23.89° C | 14% | 1013.4 hPa | 0 mm | - | 295 W/m² | - |
| 1777849213 | 23.89° C | 14% | 1013.6 hPa | 0 mm | - | 293 W/m² | - |
| 1777848909 | 23.89° C | 15% | 1013.5 hPa | 0 mm | - | 280 W/m² | - |
| 1777848604 | 23.89° C | 13% | 1013.8 hPa | 0 mm | - | 275 W/m² | - |
| 1777848302 | 23.89° C | 15% | 1013.5 hPa | 0 mm | - | 272 W/m² | - |
| 1777848000 | 23.89° C | 15% | 1013.9 hPa | 0 mm | - | 274 W/m² | - |
| 1777847697 | 23.89° C | 15% | 1013.8 hPa | 0 mm | - | 274 W/m² | - |
| 1777847392 | 23.89° C | 14% | 1013.9 hPa | 0 mm | - | 270 W/m² | - |
| 1777847091 | 23.89° C | 14% | 1013.9 hPa | 0 mm | - | 277 W/m² | - |
| 1777846789 | 23.89° C | 14% | 1014 hPa | 0 mm | - | 298 W/m² | - |
| 1777846487 | 24.44° C | 13% | 1014.1 hPa | 0 mm | - | 344 W/m² | - |
| 1777846184 | 24.44° C | 15% | 1014 hPa | 0 mm | - | 398 W/m² | - |
| 1777845880 | 24.44° C | 13% | 1014.2 hPa | 0 mm | - | 367 W/m² | - |
| 1777845577 | 24.44° C | 14% | 1014.5 hPa | 0 mm | - | 394 W/m² | - |
| 1777845274 | 24.44° C | 14% | 1014.5 hPa | 0 mm | - | 431 W/m² | - |
| 1777844972 | 25° C | 14% | 1014.5 hPa | 0 mm | - | 511 W/m² | - |
| 1777844669 | 25° C | 14% | 1014.8 hPa | 0 mm | - | 594 W/m² | - |
| 1777844366 | 25° C | 14% | 1014.8 hPa | 0 mm | - | 601 W/m² | - |
| 1777844065 | 25° C | 15% | 1014.8 hPa | 0 mm | - | 736 W/m² | - |
| 1777843760 | 24.44° C | 13% | 1014.8 hPa | 0 mm | - | 749 W/m² | - |
| 1777843458 | 24.44° C | 14% | 1014.9 hPa | 0 mm | - | 768 W/m² | - |
| 1777843155 | 24.44° C | 14% | 1015 hPa | 0 mm | - | 716 W/m² | - |
| 1777842852 | 23.89° C | 14% | 1015.3 hPa | 0 mm | - | 476 W/m² | - |
* Rain latest hour (hover to see other rain measurements)
** Current wind speed in m/s (hover to see current wind gust speed)